Home > Weather > Innsbruck > Past weeks

Flag for Austria Weather for the Past 2 Weeks in Innsbruck, Tyrol, Austria

Now
38 °F

Overcast.


Feels Like: 34 °F
Forecast: 24 / 40 °F
Wind: 5 mph from West

Location: Innsbruck-Flughafen

Current Time: Feb 10, 2016 at 8:00:32 PM

Latest Report: Feb 10, 2016 at 7:00 PM


Visibility: 4 mi

Pressure: 29.64 "Hg (27.62 "Hg at 570m altitude)

Humidity: 59%

Dew point: 24 °F

Location of InnsbruckLocation

Historic Weather in Innsbruck — Graph

°F

Innsbruck Temperature Yesterday

Maximum temperature yesterday: 54 °F (at 12:00 PM)
Minimum temperature yesterday: 36 °F (at 8:00 AM)
Average temperature yesterday: 49 °F

High & Low Weather Summary for the Past Weeks

 TemperatureHumidityPressure
High58 °F (Feb 1, 3:00 PM)100% (Feb 1, 1:00 AM)30.53 "Hg (Feb 1, 1:00 AM)
Low25 °F (Jan 27, 6:00 AM)40% (Feb 9, 12:00 PM)29.23 "Hg (Feb 10, 12:00 AM)
Average39 °F82%30.13 "Hg
* Reported Jan 26 6:00 PM — Feb 10 6:00 PM, Innsbruck, Weather by CustomWeather, © 2016

Note: Actual official high and low records may vary slightly from our data, if they occured in-between our weather recording intervals... More about our weather records

Advertising

Innsbruck Weather History for the Previous 24 Hours

 ConditionsComfort  
Time TempWeatherWind HumidityBarometerVisibility
6:00 PM
Wed, Feb 10
39 °FPassing clouds.8 mph50%29.60 "Hg4 mi
5:00 PM39 °FPartly sunny.9 mph49%29.57 "Hg6 mi
4:00 PM38 °FPartly sunny.N/A79%29.56 "Hg3 mi
3:00 PM38 °FPassing clouds.5 mph78%29.54 "Hg7 mi
2:00 PM37 °FPartly sunny.6 mph84%29.54 "Hg9 mi
1:00 PM36 °FLow clouds.5 mph92%29.55 "Hg6 mi
12:00 PM34 °FSnow flurries. Low clouds.5 mph95%29.55 "Hg11 mi
11:00 AM34 °FLight snow. Low clouds.5 mph95%29.54 "Hg4 mi
10:00 AM34 °FLow clouds.N/A91%29.50 "Hg3 mi
9:00 AM33 °FLight snow. Low clouds.N/A97%29.50 "Hg3 mi
8:00 AM33 °FHeavy snow. Low clouds.N/A96%29.50 "Hg2 mi
7:00 AM34 °FLight snow. Low clouds.3 mph93%29.47 "Hg6 mi
6:00 AM34 °FLight snow. Overcast.5 mph93%29.47 "Hg7 mi
5:00 AM35 °FOvercast.N/A90%29.44 "Hg9 mi
4:00 AM35 °FOvercast.3 mph91%29.41 "Hg9 mi
3:00 AM37 °FRain. Overcast.N/A82%29.41 "Hg6 mi
1:00 AM42 °FDrizzle. Overcast.10 mph72%29.26 "Hg28 mi
12:00 AM48 °FOvercast.3 mph63%29.23 "Hg10 mi
11:00 PM
Tue, Feb 9
49 °FOvercast.5 mph56%29.26 "Hg22 mi
10:00 PM49 °FOvercast.6 mph58%29.29 "Hg25 mi
9:00 PM50 °FOvercast.8 mph56%29.29 "Hg19 mi
8:00 PM52 °FOvercast.6 mph49%29.32 "Hg22 mi
Weather by CustomWeather, © 2016

See weather overviewHow to use our weather pages